Tracking 18942 objects as of 18-Jan-2018
HD Live streaming from Space Station
objects crossing your sky now

FENGYUN 1C DEB

Track FENGYUN 1C DEB now!
10-day predictions


NORAD ID: 36684
Int'l Code: 1999-025DZE
Perigee: 726.6 km
Apogee: 811.5 km
Inclination: 99.5 °
Period: 100.1 minutes
Semi major axis: 7140 km
RCS: 0.0009 m2 (small)
Launch date: May 10, 1999
Source: People's Republic of China (PRC)
Launch site: Taiyaun Space Center, China (TSC)

Note: This is SATELLITE DEBRIS
aabbcc
Your satellite tracking list
Your tracking list is empty




NASA's NSSDC Master Catalog

Two Line Element Set (TLE):
1 36684U 99025DZE 18015.10123393 +.00000876 +00000-0 +29527-3 0  9998
2 36684 099.5004 070.1873 0059433 330.8584 028.9288 14.38963575453423
Source of the keplerian elements: AFSPC